Regional Weather Roundup
Issued by NWS

Home | Current Version | Previous Version | Text Only | Print | Product List | Glossary On
Versions: 1 2 3 4 5 6 7 8 9 10 11 12 13 14 15 16 17 18 19 20 21 22 23 24 25 26 27 28 29 30 31 32 33 34 35 36 37 38 39 40 41 42 43 44 45 46 47 48 49 50
000
ASUS44 KLIX 022013
RWRLA
LOUISIANA WEATHER ROUNDUP
NATIONAL WEATHER SERVICE NEW ORLEANS LA
200 PM CST FRI DEC 02 2016

NOTE: "FAIR" INDICATES FEW OR NO CLOUDS BELOW 12,000 FEET WITH NO
      SIGNIFICANT WEATHER AND/OR OBSTRUCTIONS TO VISIBILITY.
      SKY/WX - SKY CONDITION AND SIGNIFICANT WEATHER.
      TMP - AIR TEMPERATURE.    DP   - DEWPOINT TEMPERATURE.
      RH  - RELATIVE HUMIDITY.  PRES - PRESSURE.
      HX  - HEAT INDEX.         WCI  - WIND CHILL INDEX.

*  THESE STATIONS ARE NOT NWS OR FAA STATIONS AND ARE NOT UNDER
   NWS QUALITY CONTROL.

LAZ040-048-061>063-065-066-069-022100-
SOUTHEAST LOUISIANA

CITY           SKY/WX    TMP DP  RH WIND       PRES   REMARKS
N.O. AUDUBON   NOT AVBL
N.O. INTL ARPT CLOUDY    64  42  44 E15G22    30.15F
N.O. LAKEFRONT CLOUDY    63  43  48 E21G26    30.16F
N.O. DOWNTOWN*   N/A     63  44  50 VRB5      30.17F
RESERVE*       FAIR      66  45  47 NE12G18   30.16F
SLIDELL        SUNNY     66  34  30 NE12      30.15F
BATON ROUGE    MOSUNNY   65  31  28 E10       30.16R
BOOTHVILLE     CLOUDY    63  53  70 E14       30.14F
BELLE CHASSE   PTSUNNY   64  45  49 E15       30.14F
BOGALUSA*      FAIR      68  26  20 E7        30.19F
GALLIANO*      CLOUDY    65  49  56 E7G18     30.13F
NEW ROADS*     MOCLDY    65  33  30 E10       30.16R
GONZALES*      MOCLDY    64  39  40 E12G20    30.14F
HAMMOND*       SUNNY     68  27  21 SE10      30.17S
HOUMA*         PTSUNNY   64  50  59 E16       30.14F
PORT FOURCHON* CLEAR     66  54  63 E17G24    30.11S

$$

LAZ041-044-053-054-022100-
SOUTHWEST LOUISIANA

CITY           SKY/WX    TMP DP  RH WIND       PRES   REMARKS
LAKE CHARLES   CLOUDY    62  45  53 NE12      30.10F
LAFAYETTE      CLOUDY    66  40  38 VRB5      30.13F
PATTERSON      CLOUDY   N/A N/A N/A E9        30.13F
SALT POINT     NOT AVBL
NEW IBERIA     CLOUDY    68  38  33 E12       30.14S
CHENAULT AIRPK PTSUNNY   63  45  51 E9        30.11F

$$

LAZ027-028-022100-
CENTRAL LOUISIANA

CITY           SKY/WX    TMP DP  RH WIND       PRES   REMARKS
FORT POLK      CLOUDY    60  38  43 NE8       30.13F
ALEXANDRIA INT CLOUDY    63  34  33 E9        30.14F
ALEXANDRIA     MOSUNNY   64  33  31 E5        30.15F

$$

LAZ001-002-022100-
NORTHWEST LOUISIANA

CITY           SKY/WX    TMP DP  RH WIND       PRES   REMARKS
SHREVEPORT     CLOUDY    64  34  32 E6        30.15F
BARKSDALE AFB  PTSUNNY   63  34  34 SE3       30.16F
DTN SHREVEPORT CLOUDY    63  35  35 NE5       30.16F

$$

LAZ014-016-022100-
NORTHEAST LOUISIANA

CITY           SKY/WX    TMP DP  RH WIND       PRES   REMARKS
MONROE         MOSUNNY   65  29  25 E6        30.19F
TALLULAH       MOSUNNY   65  29  25 SE8       30.19F

$$




USA.gov is the U.S. government's official web portal to all federal, state and local government web resources and services.